[[{"header":{"parameterUnit":"m.s-1","parameterCategory":2,"la1":30.2991,"la2":30.254,"lo1":-89.0895,"lo2":-89.0444,"dy":0.0017,"dx":0.0017,"nx":28,"ny":28,"refTime":"2026-02-25T03:00:00:Z","depth":"0","parameterNumber":2,"parameterNumberName":"U-component_of_CURRENTS"},"data":[0,0,0,0,0,0,0,0,0,0,0,0,0,0,0,0,0,0,0,0,0,0,0,0,0,0,0,0,0,0,0,0,0,0,0,0,0,0,0,0,0,0,0,0,0,0,0,0,0,0,0,0,0,0,0,0,0,0,0.3,0.3001,0,0.3045,0.3045,0.3046,0.3039,0.3039,0.3038,0.3038,0.3045,0.3046,0.3046,0,0,0,0,0,0,0,0,0,0,0,0,0,0.2917,0.2918,0.3,0.3001,0.3002,0.3045,0.3045,0.3046,0.3039,0.3039,0.3038,0.3038,0.3045,0.3046,0.3046,0,0,0,0,0,0,0,0,0,0,0,0,0,0.2953,0.2918,0.3,0.3006,0.3008,0.3045,0.3045,0.3046,0.3039,0.3039,0.3038,0.3037,0.3045,0.3045,0.3046,0.3066,0,0,0.3049,0.305,0,0,0,0,0,0,0,0,0.2951,0.2956,0.3005,0.3006,0.3007,0.3039,0.3019,0.3052,0.304,0.3024,0.3038,0.3037,0.3042,0.3043,0.3049,0.3066,0.3067,0.3049,0.305,0.305,0.3051,0,0,0,0,0,0,0,0.2949,0.2954,0.3015,0.3006,0.3007,0.3009,0.3013,0.3025,0.3033,0.3025,0.3026,0.3036,0.3042,0.3048,0.3049,0.3067,0.3049,0.305,0.3051,0.3051,0.3132,0.3134,0,0,0,0,0,0,0.295,0.2952,0.3014,0.3017,0.298,0.3012,0.3016,0.3027,0.3034,0.3036,0.3036,0.3036,0.3047,0.3048,0.3049,0.3097,0.305,0.3051,0.3052,0.3131,0.3133,0.3134,0,0,0,0,0,0,0.2948,0.2955,0.3012,0.2987,0.2995,0.3014,0.3026,0.3028,0.3039,0.3043,0.3043,0.3045,0.3047,0.3048,0.3073,0.3096,0.3052,0.3052,0.3129,0.3131,0.3133,0.3177,0,0,0,0,0,0,0.2945,0.2954,0.2962,0.2988,0.2997,0.3044,0.3027,0.303,0.3047,0.3046,0.3051,0.3051,0.3046,0.3072,0.3074,0.3097,0.3053,0.3127,0.313,0.3133,0.3174,0.3181,0.3187,0,0,0,0,0,0.2942,0.2958,0.2963,0.297,0.3008,0.3046,0.3051,0.3059,0.3048,0.3063,0.3067,0.3051,0.3092,0.3074,0.3076,0.31,0.3125,0.3129,0.3132,0.3171,0.3179,0.3187,0,0,0,0,0,0,0.2926,0.296,0.2965,0.299,0.3021,0.3046,0.3061,0.3065,0.308,0.3077,0.3071,0.3072,0.3106,0.31,0.308,0.3134,0.3107,0.3111,0.3135,0.3143,0.315,0.3149,0.3054,0,0,0,0,0,0.2928,0.2947,0.2982,0.3003,0.302,0.3041,0.3056,0.3065,0.3083,0.3089,0.3092,0.3101,0.3123,0.3129,0.3146,0.3172,0.3184,0.319,0.3197,0.3202,0.3205,0.3256,0.3267,0.3146,0.3146,0.3146,0,0,0.2927,0.295,0.2959,0.3002,0.3022,0.3051,0.3047,0.3079,0.3101,0.3088,0.3113,0.3126,0.3138,0.3172,0.3185,0.3167,0.3245,0.3207,0.3211,0.3211,0.3261,0.3272,0.3283,0.3149,0.3148,0.3148,0,0,0.2939,0.2957,0.2979,0.3007,0.3048,0.3064,0.3075,0.3107,0.312,0.3153,0.3153,0.3181,0.3203,0.3221,0.3232,0.3285,0.3283,0.329,0.3317,0.3366,0.3376,0.3385,0.3422,0.3434,0.3288,0.3288,0.3288,0,0.2937,0.2967,0.2992,0.3024,0.3047,0.307,0.3099,0.3122,0.3157,0.318,0.3166,0.3226,0.3228,0.3282,0.3297,0.3299,0.3323,0.3283,0.3374,0.3383,0.3392,0.3427,0.344,0.329,0.329,0.329,0.3289,0,0.2968,0.2991,0.301,0.3052,0.3083,0.3113,0.3151,0.3181,0.3195,0.3219,0.3277,0.329,0.3326,0.3334,0.3327,0.3394,0.3391,0.3381,0.3351,0.3407,0.344,0.3453,0.3294,0.3293,0.3292,0.3292,0,0,0.296,0.3018,0.3023,0.3039,0.3098,0.3121,0.3175,0.3229,0.3267,0.3299,0.3354,0.3387,0.3399,0.3413,0.3417,0.3449,0.3524,0.3438,0.3439,0.3469,0.3634,0.3617,0.3629,0.3533,0.3536,0.3538,0.3635,0,0.2974,0.3019,0.3054,0.3092,0.3113,0.3161,0.3207,0.3262,0.3309,0.3368,0.3404,0.3453,0.3429,0.3452,0.3485,0.3524,0.3559,0.3499,0.358,0.3582,0.3557,0.3643,0.3581,0.3661,0.3647,0.3649,0.365,0,0.2989,0.3015,0.3052,0.3102,0.3119,0.3148,0.3228,0.3278,0.3377,0.3418,0.3483,0.3517,0.3583,0.3547,0.3639,0.3605,0.3622,0.3639,0.3643,0.3619,0.3589,0.3604,0.3684,0.3652,0.3669,0.3667,0.3666,0,0.2953,0.3009,0.303,0.3049,0.3117,0.3147,0.3191,0.3289,0.3349,0.3457,0.3517,0.3594,0.3649,0.3688,0.3727,0.3694,0.3826,0.3784,0.3785,0.3783,0.3741,0.3732,0.3793,0.3847,0.3847,0.3846,0.3846,0,0.2947,0.2962,0.3008,0.3019,0.3056,0.3117,0.3181,0.325,0.3364,0.3445,0.3534,0.3614,0.3689,0.3772,0.3777,0.3836,0.3872,0.3812,0.3819,0.3755,0.3746,0.3722,0.3697,0.385,0.3849,0.3849,0.3848,0,0.2911,0.294,0.2963,0.302,0.3037,0.3066,0.3167,0.3223,0.3338,0.3454,0.3495,0.3659,0.3772,0.3841,0.3927,0.3911,0.3879,0.3957,0.3873,0.3867,0.3807,0.3786,0.3656,0.3568,0.3973,0.3973,0.3974,0,0.2897,0.2904,0.2949,0.2962,0.2986,0.3036,0.3079,0.3194,0.3266,0.3472,0.3528,0.3697,0.38,0.3945,0.3966,0.4009,0.3901,0.3959,0.3873,0.3821,0.3803,0.3605,0.3525,0.3839,0.3838,0.3838,0.3837,0,0.2875,0.2888,0.2909,0.2932,0.296,0.2996,0.3068,0.3115,0.3265,0.3367,0.3513,0.3618,0.3811,0.3866,0.3961,0.3963,0.3821,0.3944,0.3923,0.3739,0.3496,0.3408,0.375,0.3831,0.3832,0.3832,0.3832,0.3833,0.2858,0.2859,0.2879,0.2893,0.292,0.2935,0.2923,0.3021,0.3104,0.3229,0.341,0.3531,0.377,0.3903,0.388,0.3872,0.3765,0.3802,0.3794,0.3605,0.3474,0.3797,0.386,0.3861,0.3862,0.3862,0.3863,0,0.2822,0.2823,0.2839,0.2829,0.2808,0.2854,0.2891,0.286,0.289,0.3098,0.3207,0.3463,0.3597,0.3744,0.3854,0.3764,0.3554,0.369,0.3425,0.3364,0.3716,0.3668,0.3653,0.3653,0.3653,0.3653,0.3653,0.3653,0.2806,0.2788,0.278,0.2709,0.2693,0.2619,0.26,0.2586,0.2682,0.2806,0.2956,0.3133,0.3531,0.3818,0.3824,0.3719,0.347,0.3322,0.3278,0.3598,0.3607,0.3616,0.3567,0.353,0.353,0.2798,0.2793,0.2789]},{"header":{"parameterUnit":"m.s-1","parameterCategory":2,"la1":30.2991,"la2":30.254,"lo1":-89.0895,"lo2":-89.0444,"dy":0.0017,"dx":0.0017,"nx":28,"ny":28,"refTime":"2026-02-25T03:00:00:Z","depth":"0","parameterNumber":3,"parameterNumberName":"V-component_of_CURRENTS"},"data":[0,0,0,0,0,0,0,0,0,0,0,0,0,0,0,0,0,0,0,0,0,0,0,0,0,0,0,0,0,0,0,0,0,0,0,0,0,0,0,0,0,0,0,0,0,0,0,0,0,0,0,0,0,0,0,0,0,0,0.0384,0.0383,0,0.0326,0.0325,0.0324,0.0272,0.0271,0.0271,0.0271,0.0155,0.0153,0.015,0,0,0,0,0,0,0,0,0,0,0,0,0,0.0363,0.0364,0.0384,0.0383,0.0383,0.0326,0.0325,0.0324,0.0272,0.0271,0.0271,0.027,0.0156,0.0153,0.015,0,0,0,0,0,0,0,0,0,0,0,0,0,0.0343,0.0365,0.0384,0.0352,0.0349,0.0326,0.0325,0.0324,0.0272,0.0271,0.0271,0.027,0.0157,0.0153,0.0149,0.0135,0,0,0.0137,0.0135,0,0,0,0,0,0,0,0,0.0344,0.0344,0.0357,0.0354,0.0351,0.0308,0.0276,0.0259,0.0272,0.0298,0.0271,0.027,0.0203,0.0196,0.0183,0.013,0.0125,0.0137,0.0134,0.0132,0.0131,0,0,0,0,0,0,0,0.0346,0.0345,0.0358,0.0357,0.0353,0.0311,0.0308,0.0272,0.0251,0.0296,0.0292,0.0291,0.0201,0.0187,0.0179,0.0123,0.0137,0.0133,0.0131,0.0129,0.0051,0.0051,0,0,0,0,0,0,0.0364,0.0347,0.036,0.0356,0.0349,0.0313,0.0309,0.032,0.0253,0.0243,0.0291,0.0289,0.0194,0.0184,0.0175,0.0168,0.0132,0.0129,0.0126,0.005,0.0051,0.0051,0,0,0,0,0,0,0.0364,0.0367,0.0362,0.0352,0.0349,0.0315,0.0326,0.0319,0.0308,0.0251,0.0239,0.0289,0.0193,0.0181,0.015,0.0163,0.0127,0.0123,0.005,0.0051,0.0051,0.0145,0,0,0,0,0,0,0.0364,0.0367,0.0377,0.0354,0.035,0.0362,0.0327,0.0318,0.0309,0.0305,0.0245,0.0233,0.0192,0.0157,0.0146,0.0156,0.012,0.005,0.005,0.0051,0.0142,0.0149,0.0155,0,0,0,0,0,0.0364,0.039,0.0378,0.0379,0.0366,0.0363,0.0357,0.0328,0.031,0.0314,0.0271,0.0235,0.0154,0.0154,0.0142,0.0151,0.0049,0.005,0.0051,0.0139,0.0148,0.0155,0,0,0,0,0,0,0.0384,0.0386,0.0373,0.0397,0.0384,0.0355,0.0356,0.0336,0.0306,0.0299,0.0241,0.0227,0.0204,0.0164,0.0166,0.0129,0.0095,0.0094,0.0166,0.0174,0.0181,0.0206,0.0116,0,0,0,0,0,0.0395,0.0414,0.0402,0.0418,0.0417,0.0386,0.0379,0.0363,0.0336,0.0322,0.0281,0.0235,0.0197,0.0177,0.0137,0.0119,0.0082,0.0116,0.0123,0.0129,0.014,0.0092,0.0096,0.0054,0.0054,0.0054,0,0,0.0404,0.0409,0.0418,0.0423,0.0408,0.0421,0.038,0.0381,0.0388,0.0313,0.0306,0.0258,0.0197,0.0177,0.0163,0.0146,0.0122,0.013,0.0136,0.0143,0.0094,0.0098,0.0102,0.0055,0.0055,0.0054,0,0,0.0443,0.0441,0.0471,0.047,0.0464,0.0448,0.0454,0.0433,0.0419,0.0405,0.0353,0.0318,0.0261,0.0225,0.0196,0.0217,0.0159,0.02,0.0255,0.0209,0.0212,0.0215,0.0182,0.018,0.0204,0.0204,0.0204,0,0.0451,0.0493,0.0476,0.0504,0.0508,0.0468,0.0496,0.048,0.0451,0.0445,0.0415,0.0338,0.0285,0.0262,0.0265,0.0234,0.02,0.0232,0.0219,0.0221,0.0222,0.0187,0.0184,0.0209,0.0208,0.0208,0.0207,0,0.0514,0.0542,0.056,0.0583,0.0583,0.0601,0.0582,0.0582,0.0555,0.053,0.0502,0.0429,0.0386,0.0359,0.0315,0.0299,0.0271,0.0235,0.0204,0.0232,0.0193,0.0189,0.0215,0.0214,0.0212,0.0211,0,0,0.0542,0.0595,0.06,0.0629,0.0628,0.0641,0.0655,0.0657,0.0676,0.0623,0.0633,0.0552,0.0508,0.0474,0.0413,0.0368,0.0341,0.0311,0.0306,0.0289,0.0248,0.0227,0.022,0.03,0.03,0.0299,0.0222,0,0.0592,0.0671,0.0675,0.0736,0.0772,0.0749,0.0773,0.0766,0.0739,0.0739,0.0658,0.0634,0.0553,0.0534,0.0478,0.0376,0.0332,0.0366,0.0215,0.0211,0.0196,0.0215,0.0242,0.0175,0.0218,0.0217,0.0216,0,0.065,0.0699,0.0773,0.0833,0.0846,0.0872,0.0902,0.092,0.09,0.088,0.0835,0.0764,0.0696,0.0621,0.0468,0.0493,0.0384,0.0298,0.0292,0.0237,0.0181,0.015,0.0165,0.0004,0.0209,0.0209,0.021,0,0.069,0.0765,0.083,0.0848,0.0905,0.0935,0.0962,0.0963,0.0999,0.0969,0.0982,0.0873,0.0836,0.0683,0.0498,0.0481,0.0329,0.0281,0.0162,0.0159,0.0135,0.0131,-0.0014,0.0176,0.0176,0.0177,0.0177,0,0.0747,0.08,0.0861,0.09,0.0991,0.0999,0.1082,0.1093,0.112,0.1178,0.1063,0.1075,0.0847,0.0728,0.0544,0.0349,0.0361,0.018,0.0139,0.0169,0.0169,-0.001,-0.0114,0.0174,0.0174,0.0175,0.0175,0,0.0789,0.0824,0.0911,0.0986,0.1018,0.1085,0.1186,0.1251,0.1255,0.1329,0.1326,0.1228,0.1072,0.0839,0.0594,0.0424,0.0121,0.015,0.0208,0.0174,-0.0087,-0.0186,-0.0402,-0.0494,0.0011,0.001,0.0009,0,0.0822,0.0872,0.0978,0.1044,0.1086,0.1186,0.1272,0.132,0.1399,0.1431,0.1484,0.1351,0.1292,0.0928,0.059,0.0275,0.0091,0.009,0.0055,-0.009,-0.0232,-0.0313,-0.0381,0.0061,0.0061,0.0061,0.0061,0,0.0889,0.0919,0.0993,0.1131,0.1232,0.1356,0.1479,0.1566,0.1633,0.1689,0.1737,0.1686,0.1345,0.104,0.06,0.0363,-0.0029,0.0075,-0.0097,-0.0218,-0.0296,-0.0407,0.0105,0.0058,0.0058,0.0059,0.0059,0.0059,0.0934,0.0999,0.1097,0.123,0.1354,0.1517,0.1632,0.1759,0.1898,0.2018,0.1953,0.1955,0.1505,0.0908,0.0538,-0.0047,-0.0073,-0.02,-0.031,-0.038,-0.0467,0.0047,-0.0036,-0.0037,-0.0037,-0.0037,-0.0037,0,0.0991,0.107,0.1195,0.1355,0.1501,0.1557,0.1767,0.1889,0.206,0.2204,0.225,0.2102,0.1514,0.0927,0.013,-0.031,-0.0503,-0.0558,-0.0666,-0.0721,-0.0271,-0.0264,-0.0375,-0.0375,-0.0375,-0.0375,-0.0375,-0.0375,0.1025,0.1143,0.121,0.145,0.1568,0.1776,0.1902,0.2077,0.2237,0.2452,0.254,0.2579,0.218,0.059,-0.0408,-0.0644,-0.0962,-0.1058,-0.1222,-0.0903,-0.0877,-0.0853,-0.087,-0.1106,-0.1107,-0.1603,-0.1608,-0.1612]}],[{"header":{"parameterUnit":"m.s-1","parameterCategory":2,"la1":30.2991,"la2":30.254,"lo1":-89.0895,"lo2":-89.0444,"dy":0.0017,"dx":0.0017,"nx":28,"ny":28,"refTime":"2026-02-25T03:00:00:Z","depth":"2","parameterNumber":2,"parameterNumberName":"U-component_of_CURRENTS"},"data":[0,0,0,0,0,0,0,0,0,0,0,0,0,0,0,0,0,0,0,0,0,0,0,0,0,0,0,0,0,0,0,0,0,0,0,0,0,0,0,0,0,0,0,0,0,0,0,0,0,0,0,0,0,0,0,0,0,0,0.2852,0.2853,0,0.2898,0.2899,0.2899,0.29,0.29,0.29,0.2899,0.2914,0.2915,0.2916,0,0,0,0,0,0,0,0,0,0,0,0,0,0.2771,0.2772,0.2852,0.2853,0.2854,0.2898,0.2899,0.2899,0.29,0.29,0.29,0.2899,0.2914,0.2915,0.2916,0,0,0,0,0,0,0,0,0,0,0,0,0,0.2808,0.2773,0.2852,0.2862,0.2864,0.2898,0.2899,0.2899,0.29,0.29,0.29,0.2899,0.2914,0.2915,0.2916,0.2931,0,0,0.2919,0.2919,0,0,0,0,0,0,0,0,0.2806,0.281,0.286,0.2861,0.2863,0.2896,0.2876,0.2909,0.2901,0.2883,0.2899,0.2899,0.2908,0.2909,0.2915,0.2931,0.2932,0.2919,0.292,0.292,0.292,0,0,0,0,0,0,0,0.2803,0.2808,0.2867,0.2861,0.2863,0.2867,0.2871,0.2882,0.2894,0.2885,0.2886,0.2896,0.2908,0.2914,0.2915,0.2932,0.2919,0.292,0.2921,0.2921,0.3003,0.3005,0,0,0,0,0,0,0.2804,0.2806,0.2866,0.2869,0.2836,0.2869,0.2873,0.2883,0.2895,0.2897,0.2896,0.2896,0.2912,0.2914,0.2916,0.2967,0.292,0.2921,0.2922,0.3002,0.3004,0.3005,0,0,0,0,0,0,0.2802,0.2809,0.2864,0.2841,0.2849,0.2871,0.2882,0.2885,0.2899,0.2905,0.2906,0.2909,0.2912,0.2914,0.2942,0.2967,0.2921,0.2922,0.3,0.3002,0.3004,0.3049,0,0,0,0,0,0,0.2799,0.2808,0.2817,0.2841,0.285,0.2897,0.2883,0.2886,0.2907,0.2907,0.2916,0.2916,0.2912,0.294,0.2943,0.2967,0.2923,0.2998,0.3001,0.3004,0.3046,0.3053,0.3059,0,0,0,0,0,0.2796,0.2811,0.2817,0.2825,0.2862,0.2898,0.2903,0.2915,0.2908,0.2923,0.2931,0.2916,0.2961,0.2943,0.2945,0.297,0.2996,0.3,0.3003,0.3043,0.3052,0.3059,0,0,0,0,0,0,0.2782,0.2814,0.2821,0.2845,0.2876,0.29,0.2916,0.2922,0.294,0.2939,0.2935,0.2938,0.2974,0.2968,0.2948,0.3005,0.2977,0.2981,0.3006,0.3014,0.3021,0.3021,0.2924,0,0,0,0,0,0.2785,0.2803,0.2837,0.2858,0.2874,0.2896,0.2912,0.2924,0.2943,0.295,0.2956,0.2968,0.299,0.2998,0.3015,0.3042,0.3053,0.3062,0.3068,0.3074,0.3077,0.3125,0.3136,0.3017,0.3017,0.3017,0,0,0.2784,0.2806,0.2816,0.2857,0.2878,0.2906,0.2905,0.2937,0.296,0.2949,0.2979,0.2993,0.3005,0.304,0.3055,0.3037,0.3116,0.3078,0.3083,0.3083,0.313,0.3141,0.3152,0.3019,0.3019,0.3019,0,0,0.2796,0.2816,0.2836,0.2864,0.2906,0.2921,0.2934,0.2966,0.2982,0.3016,0.3019,0.3049,0.3073,0.3091,0.3101,0.3155,0.3153,0.3162,0.3189,0.3236,0.3246,0.3255,0.329,0.3301,0.316,0.316,0.316,0,0.2797,0.2825,0.285,0.2881,0.2904,0.2929,0.2958,0.2982,0.3018,0.3042,0.3032,0.3095,0.3098,0.3151,0.3167,0.317,0.3193,0.3155,0.3245,0.3254,0.3262,0.3295,0.3307,0.3162,0.3162,0.3162,0.3162,0,0.2825,0.2849,0.2867,0.2909,0.294,0.297,0.3009,0.3041,0.3058,0.3083,0.3143,0.3158,0.3196,0.3205,0.3198,0.3265,0.3262,0.3251,0.3222,0.3277,0.3308,0.332,0.3166,0.3165,0.3164,0.3164,0,0,0.2818,0.2873,0.288,0.2897,0.2956,0.2979,0.3033,0.3088,0.3126,0.3162,0.3218,0.3253,0.3268,0.3282,0.3288,0.3319,0.3393,0.3309,0.331,0.3338,0.3498,0.3476,0.3487,0.3402,0.3404,0.3406,0.3498,0,0.2832,0.2875,0.2909,0.2949,0.297,0.3019,0.3065,0.312,0.3169,0.3229,0.3266,0.3319,0.3297,0.3324,0.3356,0.3392,0.3426,0.3369,0.3445,0.3447,0.3417,0.35,0.3212,0.3268,0.351,0.3512,0.3513,0,0.2845,0.2871,0.2909,0.2961,0.2978,0.3009,0.309,0.3139,0.3237,0.328,0.3347,0.3383,0.3449,0.3416,0.3505,0.3473,0.349,0.3505,0.3509,0.3479,0.3447,0.3252,0.328,0.3533,0.3531,0.353,0.3528,0,0.281,0.2868,0.289,0.291,0.2978,0.3011,0.3056,0.3153,0.3212,0.3322,0.3382,0.3459,0.3516,0.3553,0.3592,0.356,0.3684,0.3643,0.3638,0.3636,0.34,0.3374,0.3704,0.3704,0.3704,0.3704,0.3703,0,0.2804,0.2822,0.2871,0.2883,0.2923,0.2985,0.3051,0.312,0.3234,0.3312,0.3403,0.3481,0.3555,0.3635,0.3639,0.3691,0.3729,0.3665,0.367,0.3409,0.3384,0.3612,0.36,0.3707,0.3706,0.3706,0.3705,0,0.2768,0.2799,0.2824,0.2885,0.2905,0.2937,0.304,0.3095,0.3212,0.3325,0.3368,0.3526,0.3635,0.37,0.3782,0.3762,0.3801,0.3801,0.3492,0.3459,0.3704,0.3694,0.3809,0.3809,0.3809,0.3809,0.3809,0,0.2754,0.2762,0.2812,0.2827,0.2855,0.2909,0.2953,0.3069,0.3139,0.3343,0.3395,0.356,0.3652,0.3785,0.377,0.38,0.3841,0.3555,0.3441,0.3728,0.3721,0.371,0.3699,0.3139,0.3134,0.313,0.3126,0,0.273,0.2746,0.2768,0.2797,0.2829,0.2866,0.294,0.2983,0.3132,0.3232,0.3373,0.3471,0.3621,0.3543,0.3614,0.3579,0.3528,0.3471,0.3857,0.3174,0.3109,0.3098,0.3107,0.3087,0.3091,0.3094,0.3096,0.3098,0.2715,0.2716,0.2741,0.2759,0.2792,0.2805,0.2791,0.2883,0.296,0.3058,0.3234,0.3272,0.3344,0.3307,0.3224,0.3153,0.3389,0.3228,0.3236,0.325,0.3172,0.3113,0.3076,0.308,0.3083,0.3086,0.3088,0,0.2681,0.2684,0.27,0.2698,0.268,0.2732,0.2762,0.2712,0.273,0.2871,0.2952,0.2767,0.2766,0.2815,0.2659,0.2692,0.2595,0.2579,0.2414,0.2459,0.2497,0.2373,0.207,0.2066,0.2062,0.2059,0,0,0.2667,0.2646,0.2635,0.2572,0.2569,0.2493,0.247,0.242,0.2456,0.2427,0.2429,0.2652,0.2768,0.2381,0.2352,0.2181,0.2286,0.2094,0.2923,0.2777,0.2809,0.2903,0.277,0,0,0,0,0]},{"header":{"parameterUnit":"m.s-1","parameterCategory":2,"la1":30.2991,"la2":30.254,"lo1":-89.0895,"lo2":-89.0444,"dy":0.0017,"dx":0.0017,"nx":28,"ny":28,"refTime":"2026-02-25T03:00:00:Z","depth":"2","parameterNumber":3,"parameterNumberName":"V-component_of_CURRENTS"},"data":[0,0,0,0,0,0,0,0,0,0,0,0,0,0,0,0,0,0,0,0,0,0,0,0,0,0,0,0,0,0,0,0,0,0,0,0,0,0,0,0,0,0,0,0,0,0,0,0,0,0,0,0,0,0,0,0,0,0,0.0305,0.0304,0,0.0249,0.0248,0.0247,0.0199,0.0199,0.0198,0.0198,0.0087,0.0085,0.0082,0,0,0,0,0,0,0,0,0,0,0,0,0,0.0285,0.0286,0.0305,0.0304,0.0304,0.0249,0.0248,0.0247,0.0199,0.0199,0.0198,0.0198,0.0088,0.0085,0.0082,0,0,0,0,0,0,0,0,0,0,0,0,0,0.0266,0.0287,0.0305,0.0275,0.0272,0.0249,0.0248,0.0247,0.0199,0.0199,0.0198,0.0198,0.0089,0.0085,0.0081,0.0066,0,0,0.0069,0.0067,0,0,0,0,0,0,0,0,0.0267,0.0266,0.028,0.0277,0.0274,0.0233,0.0201,0.0184,0.0199,0.0224,0.0198,0.0197,0.0133,0.0125,0.0113,0.006,0.0056,0.0069,0.0066,0.0065,0.0063,0,0,0,0,0,0,0,0.0269,0.0268,0.028,0.028,0.0276,0.0236,0.0233,0.0197,0.0178,0.0222,0.0219,0.0217,0.013,0.0117,0.011,0.0054,0.0069,0.0065,0.0063,0.0061,-0.0016,-0.0016,0,0,0,0,0,0,0.0286,0.027,0.0282,0.0278,0.0272,0.0238,0.0234,0.0244,0.018,0.0171,0.0218,0.0215,0.0124,0.0114,0.0105,0.0099,0.0065,0.0061,0.0059,-0.0017,-0.0016,-0.0016,0,0,0,0,0,0,0.0286,0.0288,0.0284,0.0274,0.0271,0.0239,0.025,0.0243,0.0234,0.0178,0.0167,0.0216,0.0123,0.0111,0.0082,0.0094,0.0059,0.0055,-0.0017,-0.0017,-0.0016,0.0075,0,0,0,0,0,0,0.0286,0.0289,0.0298,0.0276,0.0273,0.0283,0.0251,0.0243,0.0235,0.0231,0.0173,0.0162,0.0122,0.0088,0.0078,0.0087,0.0052,-0.0017,-0.0017,-0.0016,0.0072,0.0079,0.0085,0,0,0,0,0,0.0286,0.0311,0.03,0.0301,0.0289,0.0284,0.0279,0.0251,0.0236,0.024,0.0199,0.0164,0.0085,0.0086,0.0073,0.0082,-0.0018,-0.0017,-0.0016,0.0069,0.0078,0.0085,0,0,0,0,0,0,0.0305,0.0307,0.0295,0.0318,0.0306,0.0278,0.0279,0.026,0.0231,0.0226,0.0169,0.0156,0.0133,0.0095,0.0097,0.006,0.0027,0.0026,0.0096,0.0104,0.011,0.0134,0.0049,0,0,0,0,0,0.0316,0.0334,0.0322,0.0338,0.0337,0.0308,0.0301,0.0286,0.026,0.0247,0.0208,0.0164,0.0126,0.0107,0.0068,0.005,0.0012,0.0046,0.0053,0.0059,0.0069,0.002,0.0023,-0.0013,-0.0013,-0.0013,0,0,0.0325,0.033,0.0338,0.0343,0.0329,0.0341,0.0303,0.0304,0.031,0.0239,0.0233,0.0185,0.0126,0.0106,0.0092,0.0077,0.005,0.006,0.0065,0.0072,0.0021,0.0025,0.0028,-0.0013,-0.0013,-0.0013,0,0,0.0362,0.0361,0.039,0.0388,0.0384,0.0368,0.0374,0.0354,0.0342,0.0328,0.0278,0.0243,0.0188,0.0152,0.0124,0.0142,0.0086,0.0127,0.0179,0.0132,0.0135,0.0137,0.0103,0.0102,0.0131,0.0131,0.0131,0,0.037,0.041,0.0395,0.0421,0.0426,0.0388,0.0415,0.0399,0.0371,0.0365,0.0339,0.0262,0.0211,0.0185,0.0189,0.0159,0.0125,0.0158,0.0142,0.0143,0.0144,0.0108,0.0105,0.0136,0.0135,0.0135,0.0134,0,0.043,0.0458,0.0475,0.0497,0.0498,0.0516,0.0497,0.0497,0.0472,0.0447,0.0419,0.0349,0.0306,0.028,0.0237,0.0219,0.0193,0.0157,0.0128,0.0153,0.0114,0.0109,0.0142,0.014,0.0139,0.0138,0,0,0.0458,0.0509,0.0513,0.0542,0.0542,0.0554,0.0567,0.0567,0.0584,0.0534,0.0542,0.0463,0.0422,0.0388,0.0329,0.0284,0.0255,0.023,0.0225,0.0206,0.016,0.0139,0.0131,0.0215,0.0215,0.0214,0.0135,0,0.0506,0.0582,0.0586,0.0644,0.068,0.0657,0.0679,0.0671,0.0645,0.0643,0.0564,0.054,0.0463,0.0446,0.039,0.0289,0.0245,0.0281,0.0129,0.0125,0.0111,0.0126,0.0126,0.0056,0.013,0.0129,0.0128,0,0.0561,0.0608,0.0681,0.0738,0.075,0.0776,0.0803,0.0819,0.0796,0.0776,0.0731,0.0663,0.0595,0.0525,0.0373,0.0398,0.0293,0.0208,0.0202,0.0148,0.0095,0.0038,0.0043,0.0119,0.012,0.0121,0.0121,0,0.0599,0.0673,0.0736,0.0753,0.0807,0.0837,0.0863,0.0861,0.0894,0.0863,0.0874,0.0765,0.0728,0.0579,0.0399,0.0385,0.0229,0.0184,0.0067,0.0065,0.0019,0.0013,0.0079,0.008,0.008,0.008,0.008,0,0.0655,0.0706,0.0767,0.0805,0.0892,0.09,0.0979,0.0988,0.101,0.1063,0.0952,0.096,0.0739,0.0619,0.0441,0.0247,0.0258,0.0084,0.0043,0.0051,0.005,0.0064,0.0063,0.0077,0.0078,0.0078,0.0079,0,0.0694,0.0729,0.0813,0.0887,0.0919,0.0983,0.1079,0.114,0.1142,0.1209,0.1207,0.1106,0.095,0.0723,0.0481,0.0317,0.012,0.0047,0.008,0.0044,-0.0022,-0.0018,-0.0087,-0.0088,-0.009,-0.0091,-0.0091,0,0.0726,0.0774,0.0878,0.0942,0.0984,0.1081,0.1163,0.1207,0.128,0.1305,0.1352,0.1221,0.1155,0.0794,0.0462,0.0154,0.0118,-0.0042,-0.0076,-0.0006,-0.004,-0.0033,-0.0027,-0.0101,-0.0102,-0.0103,-0.0103,0,0.0787,0.0818,0.089,0.1026,0.1124,0.1242,0.1359,0.1437,0.1499,0.155,0.1589,0.1534,0.119,0.0861,0.0431,0.0214,0.0004,-0.0065,-0.001,-0.0052,-0.0025,-0.0055,-0.0048,-0.0109,-0.0109,-0.0108,-0.0108,-0.0108,0.0831,0.0892,0.099,0.112,0.1242,0.1395,0.1503,0.1615,0.1742,0.1825,0.1765,0.1683,0.1302,0.0742,0.036,-0.0046,-0.0018,-0.0164,-0.016,-0.0156,-0.0137,-0.0112,-0.0209,-0.0209,-0.0209,-0.0209,-0.0209,0,0.0884,0.0962,0.1082,0.124,0.1381,0.1441,0.1633,0.1725,0.1876,0.1942,0.1959,0.1582,0.1207,0.0778,0.0175,-0.0169,-0.0204,-0.0284,-0.0252,-0.0243,-0.0236,-0.022,-0.0316,-0.0317,-0.0318,-0.0319,0,0,0.0918,0.103,0.1093,0.1326,0.1449,0.1642,0.1758,0.1877,0.1961,0.2014,0.1966,0.1859,0.1335,0.0881,0.0389,0.0044,-0.0013,-0.003,0.0091,0.0195,0.0207,-0.0138,-0.01,0,0,0,0,0]}],[{"header":{"parameterUnit":"m.s-1","parameterCategory":2,"la1":30.2991,"la2":30.254,"lo1":-89.0895,"lo2":-89.0444,"dy":0.0017,"dx":0.0017,"nx":28,"ny":28,"refTime":"2026-02-25T03:00:00:Z","depth":"4","parameterNumber":2,"parameterNumberName":"U-component_of_CURRENTS"},"data":[0,0,0,0,0,0,0,0,0,0,0,0,0,0,0,0,0,0,0,0,0,0,0,0,0,0,0,0,0,0,0,0,0,0,0,0,0,0,0,0,0,0,0,0,0,0,0,0,0,0,0,0,0,0,0,0,0,0,0.1776,0.1777,0,0.1864,0.1865,0.1866,0.1935,0.1936,0.1936,0.1937,0.2039,0.2041,0.2043,0,0,0,0,0,0,0,0,0,0,0,0,0,0.1672,0.1673,0.1775,0.1777,0.1778,0.1864,0.1865,0.1866,0.1935,0.1936,0.1937,0.1938,0.2038,0.2041,0.2043,0,0,0,0,0,0,0,0,0,0,0,0,0,0.1732,0.1673,0.1775,0.1824,0.183,0.1864,0.1865,0.1866,0.1934,0.1936,0.1937,0.1938,0.2038,0.204,0.2043,0.2035,0,0,0.2052,0.2053,0,0,0,0,0,0,0,0,0.1729,0.1736,0.1816,0.1821,0.1827,0.1892,0.1866,0.1924,0.1934,0.1892,0.1937,0.1939,0.1991,0.1998,0.2009,0.204,0.2044,0.2052,0.2054,0.2055,0.2056,0,0,0,0,0,0,0,0.1724,0.1732,0.1808,0.1817,0.1824,0.1844,0.1854,0.1877,0.1932,0.1896,0.1902,0.1915,0.1994,0.2006,0.2012,0.2046,0.2052,0.2055,0.2057,0.2058,0.2202,0.2204,0,0,0,0,0,0,0.1716,0.1728,0.1806,0.1811,0.1782,0.1845,0.1856,0.1868,0.1932,0.1943,0.1913,0.1918,0.2,0.2008,0.2016,0.2123,0.2055,0.2058,0.206,0.22,0.2203,0.2205,0,0,0,0,0,0,0.1713,0.1722,0.1802,0.1773,0.1785,0.1845,0.1858,0.1869,0.1922,0.1945,0.1957,0.196,0.2002,0.2012,0.2078,0.2123,0.2059,0.2062,0.2198,0.2201,0.2204,0.2265,0,0,0,0,0,0,0.171,0.172,0.1745,0.1773,0.1787,0.185,0.1858,0.187,0.1926,0.1933,0.1988,0.1997,0.2003,0.2074,0.2081,0.2126,0.2064,0.2195,0.2199,0.2203,0.226,0.227,0.2278,0,0,0,0,0,0.1706,0.1727,0.1745,0.1756,0.1812,0.1851,0.1861,0.1905,0.1927,0.1957,0.2,0.1997,0.2105,0.2078,0.2086,0.2133,0.2193,0.2198,0.2203,0.2256,0.2268,0.2278,0,0,0,0,0,0,0.17,0.1737,0.1758,0.1792,0.1833,0.1864,0.1902,0.1927,0.1983,0.2004,0.2022,0.2034,0.211,0.2113,0.2083,0.2187,0.2149,0.2156,0.2188,0.2199,0.2207,0.2204,0.2066,0,0,0,0,0,0.1707,0.1736,0.1773,0.1807,0.183,0.1873,0.1902,0.1933,0.1976,0.2005,0.2043,0.2087,0.2128,0.2158,0.2191,0.2245,0.2247,0.2281,0.229,0.2297,0.2301,0.2346,0.2358,0.2221,0.2221,0.2221,0,0,0.1714,0.1741,0.1759,0.1809,0.1846,0.1882,0.1895,0.1952,0.1994,0.2005,0.2089,0.2123,0.215,0.2216,0.2249,0.2229,0.234,0.2304,0.231,0.2309,0.2352,0.2365,0.2377,0.2224,0.2223,0.2223,0,0,0.1731,0.177,0.1797,0.1833,0.1896,0.1919,0.1944,0.2001,0.2045,0.2116,0.214,0.2202,0.2264,0.2293,0.2312,0.2389,0.2386,0.241,0.2453,0.2496,0.2507,0.2517,0.254,0.2551,0.2413,0.2413,0.2413,0,0.1745,0.1778,0.1814,0.185,0.1889,0.1938,0.198,0.2024,0.21,0.2143,0.2156,0.2273,0.2297,0.237,0.2401,0.2409,0.2429,0.2407,0.2507,0.2516,0.2526,0.2546,0.2558,0.2417,0.2416,0.2416,0.2416,0,0.1767,0.1814,0.1837,0.1896,0.1941,0.199,0.2047,0.2111,0.2168,0.2211,0.2316,0.2356,0.2426,0.2446,0.2449,0.2534,0.2526,0.2512,0.2475,0.2543,0.2561,0.2572,0.2422,0.242,0.2419,0.2418,0,0,0.1749,0.1835,0.1849,0.1887,0.1974,0.2007,0.2091,0.2172,0.2237,0.2317,0.2402,0.2476,0.2514,0.2538,0.256,0.2596,0.2676,0.259,0.259,0.2604,0.2772,0.2602,0.2597,0.2688,0.2691,0.2693,0.2758,0,0.1763,0.1826,0.1874,0.195,0.1989,0.2068,0.2137,0.2222,0.2302,0.2396,0.246,0.2549,0.2544,0.2597,0.2636,0.2674,0.271,0.2659,0.2711,0.2712,0.2545,0.2605,0.27,0.2766,0.2769,0.2771,0.2772,0,0.1764,0.181,0.1881,0.198,0.2008,0.2069,0.2196,0.2267,0.2399,0.2468,0.2567,0.2623,0.2715,0.2693,0.2786,0.2762,0.2777,0.2787,0.279,0.2615,0.2562,0.2685,0.2792,0.279,0.2789,0.2787,0.2786,0,0.1713,0.1813,0.1872,0.1907,0.2025,0.2093,0.2169,0.23,0.2379,0.253,0.2607,0.271,0.2787,0.2826,0.2864,0.2844,0.2944,0.2913,0.2769,0.2757,0.2863,0.2851,0.297,0.2969,0.2969,0.2969,0.2969,0,0.1687,0.1739,0.1862,0.1894,0.1983,0.2081,0.2195,0.2288,0.2436,0.2526,0.2649,0.2726,0.283,0.2898,0.2902,0.2869,0.298,0.2782,0.2765,0.2887,0.2878,0.287,0.2858,0.2972,0.2971,0.2971,0.297,0,0.1615,0.1697,0.177,0.1908,0.1962,0.2029,0.2204,0.2272,0.2432,0.2558,0.2616,0.2775,0.2853,0.2922,0.2991,0.2905,0.2895,0.2854,0.2988,0.2978,0.2668,0.2659,0.2689,0.2684,0.2679,0.2676,0.2672,0,0.1574,0.1608,0.1762,0.1808,0.1881,0.2002,0.2077,0.2254,0.233,0.2559,0.2599,0.2751,0.283,0.2786,0.2869,0.2862,0.2827,0.2797,0.2715,0.266,0.2642,0.264,0.2636,0.2665,0.2664,0.2663,0.2662,0,0.149,0.1565,0.1619,0.1725,0.1816,0.1901,0.2031,0.2079,0.2276,0.2446,0.2518,0.2563,0.2646,0.2677,0.2697,0.2687,0.2799,0.2748,0.2757,0.2679,0.2631,0.2617,0.2619,0.2646,0.2648,0.2649,0.265,0,0.1427,0.1444,0.1532,0.1612,0.1711,0.1762,0.1854,0.1945,0.2048,0.2301,0.2319,0.2474,0.2622,0.2588,0.2608,0.2585,0.2535,0.2433,0.2457,0.2475,0.2373,0.2278,0.2174,0,0,0,0,0,0.1355,0.1358,0.1411,0.1484,0.1572,0.164,0.1796,0.1892,0.2098,0.2088,0.22,0.2264,0.2304,0.2383,0.2313,0.2507,0.2541,0.2414,0.2434,0.2558,0.2576,0.2473,0,0,0,0,0,0,0.1304,0.1339,0.136,0.1353,0.1381,0.1469,0.1563,0.1705,0.1716,0.1928,0.196,0.2116,0.2185,0.2311,0.2264,0.2287,0.225,0.2516,0.251,0.2547,0.2564,0.2579,0.248,0,0,0,0,0]},{"header":{"parameterUnit":"m.s-1","parameterCategory":2,"la1":30.2991,"la2":30.254,"lo1":-89.0895,"lo2":-89.0444,"dy":0.0017,"dx":0.0017,"nx":28,"ny":28,"refTime":"2026-02-25T03:00:00:Z","depth":"4","parameterNumber":3,"parameterNumberName":"V-component_of_CURRENTS"},"data":[0,0,0,0,0,0,0,0,0,0,0,0,0,0,0,0,0,0,0,0,0,0,0,0,0,0,0,0,0,0,0,0,0,0,0,0,0,0,0,0,0,0,0,0,0,0,0,0,0,0,0,0,0,0,0,0,0,0,0.0139,0.0139,0,0.0106,0.0105,0.0105,0.0076,0.0076,0.0076,0.0075,-0.0004,-0.0006,-0.0008,0,0,0,0,0,0,0,0,0,0,0,0,0,0.0123,0.0124,0.0139,0.0139,0.0139,0.0106,0.0105,0.0104,0.0076,0.0076,0.0076,0.0075,-0.0003,-0.0006,-0.0008,0,0,0,0,0,0,0,0,0,0,0,0,0,0.0113,0.0124,0.0139,0.0122,0.012,0.0106,0.0105,0.0104,0.0076,0.0076,0.0076,0.0075,-0.0003,-0.0006,-0.0008,-0.0022,0,0,-0.0017,-0.0019,0,0,0,0,0,0,0,0,0.0113,0.0113,0.0125,0.0123,0.0121,0.0096,0.007,0.006,0.0076,0.0091,0.0075,0.0075,0.0027,0.0021,0.0013,-0.0026,-0.0029,-0.0018,-0.002,-0.0021,-0.0022,0,0,0,0,0,0,0,0.0114,0.0114,0.0124,0.0124,0.0122,0.0097,0.0095,0.0068,0.0058,0.0089,0.0088,0.0087,0.0025,0.0016,0.0011,-0.003,-0.0018,-0.002,-0.0022,-0.0023,-0.0083,-0.0083,0,0,0,0,0,0,0.0125,0.0115,0.0125,0.0123,0.0118,0.0098,0.0096,0.0103,0.0059,0.0053,0.0087,0.0086,0.0022,0.0015,0.0008,0.0004,-0.0021,-0.0024,-0.0025,-0.0084,-0.0083,-0.0083,0,0,0,0,0,0,0.0125,0.0127,0.0126,0.0119,0.0118,0.0099,0.0106,0.0102,0.0099,0.0058,0.0051,0.0089,0.0021,0.0013,-0.0008,-0.0,-0.0025,-0.0028,-0.0084,-0.0084,-0.0083,-0.0015,0,0,0,0,0,0,0.0125,0.0127,0.0134,0.012,0.0118,0.0127,0.0107,0.0102,0.0099,0.0097,0.0057,0.0049,0.002,-0.0003,-0.0011,-0.0005,-0.003,-0.0084,-0.0084,-0.0083,-0.0018,-0.0013,-0.0009,0,0,0,0,0,0.0125,0.0141,0.0135,0.0136,0.013,0.0128,0.0125,0.0109,0.01,0.0103,0.0076,0.0051,-0.0007,-0.0005,-0.0014,-0.0009,-0.0084,-0.0084,-0.0083,-0.002,-0.0014,-0.0009,0,0,0,0,0,0,0.0136,0.0139,0.0133,0.0148,0.0142,0.0124,0.0126,0.0115,0.0097,0.0095,0.0054,0.0045,0.0028,0.0,0.0003,-0.0027,-0.005,-0.0052,0.0001,0.0006,0.0011,0.0028,-0.0032,0,0,0,0,0,0.0143,0.0157,0.015,0.0162,0.0162,0.0145,0.0141,0.0134,0.0117,0.0109,0.0082,0.0051,0.0022,0.0008,-0.0021,-0.0034,-0.0068,-0.0039,-0.0034,-0.003,-0.0023,-0.007,-0.0069,-0.0082,-0.0082,-0.0082,0,0,0.0149,0.0153,0.016,0.0165,0.0158,0.0168,0.0142,0.0146,0.0152,0.0102,0.0101,0.0067,0.0022,0.0007,-0.0003,-0.0015,-0.0043,-0.0029,-0.0025,-0.0021,-0.007,-0.0068,-0.0067,-0.0082,-0.0082,-0.0082,0,0,0.0173,0.0174,0.0195,0.0196,0.0197,0.0188,0.0193,0.0183,0.0176,0.0169,0.0133,0.0106,0.0069,0.0038,0.0017,0.0029,-0.0017,0.0018,0.0056,0.001,0.0011,0.0011,-0.0022,-0.0025,0.0021,0.0022,0.0022,0,0.0178,0.0207,0.0198,0.0219,0.0225,0.0202,0.0223,0.0214,0.0198,0.0194,0.0179,0.0121,0.0083,0.0058,0.0062,0.004,0.001,0.0041,0.0017,0.0017,0.0016,-0.0019,-0.0023,0.0025,0.0024,0.0024,0.0024,0,0.0218,0.024,0.0253,0.0273,0.0276,0.0291,0.0282,0.0286,0.0272,0.0255,0.0233,0.0181,0.0148,0.0128,0.0099,0.0076,0.0056,0.0029,0.0007,0.0022,-0.0016,-0.0022,0.003,0.0028,0.0027,0.0027,0,0,0.023,0.0273,0.0277,0.0302,0.0308,0.0319,0.0332,0.0334,0.0346,0.0314,0.0317,0.0259,0.0229,0.0203,0.0159,0.0117,0.0084,0.0078,0.0074,0.0052,-0.0008,-0.002,-0.0028,0.0053,0.0052,0.0051,-0.0029,0,0.0261,0.0317,0.0326,0.0373,0.0401,0.0393,0.0411,0.0407,0.0391,0.0388,0.0328,0.0312,0.0258,0.0247,0.0197,0.0112,0.0071,0.0109,-0.0026,-0.0029,-0.0036,-0.0035,0.0049,-0.0034,-0.0035,-0.0036,-0.0037,0,0.0296,0.0332,0.0388,0.0438,0.0449,0.0474,0.0499,0.0513,0.0495,0.0482,0.0447,0.0398,0.0341,0.0294,0.0159,0.0187,0.01,0.0029,0.0024,-0.0014,-0.0052,-0.0056,-0.0049,-0.0048,-0.0047,-0.0046,-0.0045,0,0.0313,0.0375,0.0424,0.044,0.0489,0.0518,0.0544,0.0544,0.0568,0.0547,0.0555,0.0466,0.0437,0.0313,0.0168,0.0164,0.0015,-0.0014,-0.0106,-0.0108,-0.0102,-0.0102,-0.0108,-0.0108,-0.0108,-0.0108,-0.0107,0,0.0343,0.0384,0.0446,0.0475,0.0545,0.0562,0.0625,0.0635,0.0654,0.0688,0.0613,0.0608,0.044,0.0334,0.0192,0.0028,0.003,-0.0097,-0.0131,-0.0071,-0.0066,-0.0106,-0.0105,-0.0111,-0.011,-0.0109,-0.0109,0,0.0354,0.0392,0.0458,0.0528,0.056,0.0611,0.07,0.074,0.0754,0.0797,0.0799,0.0714,0.0577,0.0399,0.0194,0.0072,-0.0092,-0.0152,-0.0062,-0.009,-0.0189,-0.0183,-0.0258,-0.0259,-0.026,-0.0261,-0.0262,0,0.0364,0.04,0.0497,0.0548,0.0588,0.0673,0.0737,0.0788,0.0835,0.0859,0.0881,0.0775,0.0692,0.0406,0.0203,-0.0068,-0.0112,-0.0197,-0.0206,-0.018,-0.0205,-0.0198,-0.0191,-0.0263,-0.0264,-0.0264,-0.0264,0,0.0377,0.0411,0.0465,0.0576,0.0658,0.0752,0.0847,0.0894,0.0954,0.0969,0.095,0.0809,0.0653,0.0415,0.0205,0.0007,-0.0144,-0.0207,-0.0207,-0.0217,-0.0187,-0.021,-0.0202,-0.0267,-0.0267,-0.0267,-0.0266,0,0.0381,0.042,0.0498,0.0597,0.07,0.0803,0.0856,0.0924,0.098,0.1013,0.1,0.0841,0.0748,0.0454,0.0258,0.0063,0.0006,-0.0065,-0.0073,-0.0072,-0.0003,0.0063,0.0033,0,0,0,0,0,0.0385,0.0433,0.0516,0.0628,0.0729,0.0801,0.0916,0.0962,0.103,0.1029,0.1023,0.0881,0.0605,0.0482,0.0285,0.0213,-0.0048,-0.0028,-0.0138,-0.0286,-0.0282,-0.0236,0,0,0,0,0,0,0.0389,0.0458,0.0509,0.0635,0.0716,0.0839,0.0919,0.0966,0.097,0.1004,0.086,0.0817,0.0542,0.0715,0.0275,0.0216,0.0116,-0.015,-0.0154,-0.0288,-0.0284,-0.0281,-0.0233,0,0,0,0,0]}]]